Location: Caltech
(34.1382°N, 118.1253°W)
Time: 20:12:17
(UTC-08:00)

JAS-1B - Visible Passes

Search period start: 24 February 2018 00:00
Search period end: 06 March 2018 00:00
Orbit: 911 x 1744 km, 99.1° (Epoch: 24 February)

Date Brightness Start Highest point End Pass type
(mag) Time Alt. Az. Time Alt. Az. Time Alt. Az.
24 Feb 10.0 21:25:05 11° NNE 21:25:05 11° NNE 21:25:15 10° NNE visible
24 Feb 10.2 23:17:20 10° NNW 23:17:20 10° NNW 23:17:23 10° NNW visible
25 Feb 10.0 21:44:20 12° N 21:44:20 12° N 21:44:51 10° N visible
26 Feb 10.0 22:03:37 13° N 22:03:37 13° N 22:04:17 10° N visible
27 Feb 10.0 22:22:51 13° N 22:22:51 13° N 22:23:34 10° N visible
28 Feb 10.0 22:42:07 13° N 22:42:07 13° N 22:42:45 10° N visible
01 Mar 10.1 23:01:22 12° NNW 23:01:22 12° NNW 23:01:49 10° NNW visible
02 Mar 9.9 21:28:22 12° NNE 21:28:22 12° NNE 21:28:50 10° NNE visible
02 Mar 10.2 23:20:38 11° NNW 23:20:38 11° NNW 23:20:46 10° NNW visible
03 Mar 9.8 21:47:38 13° N 21:47:38 13° N 21:48:22 10° N visible
04 Mar 9.8 22:06:53 14° N 22:06:53 14° N 22:07:44 10° N visible
05 Mar 9.9 22:26:08 14° N 22:26:08 14° N 22:26:59 10° N visible
